Wind_Speed
52 53 53 54 55 56 56 57 58 57 57 57 59 60 61 62 63 64 65 66 66 67 68 68 69 69 70 71 72 73 73 74 74 75 75 75 75 75
53 54 55 56 57 57 58 59 60 61 61 61 62 63 65 66 67 68 68 69 69 70 71 71 72 73 73 74 75 75 76 76 76 76 77 77 77 77
54 55 56 57 58 59 60 61 63 64 64 63 65 67 68 70 71 72 72 73 73 73 74 75 76 76 77 77 77 77 76 76 75 75 75 74 74 75
56 57 58 59 60 61 63 64 65 66 67 67 68 70 72 73 74 75 75 76 76 77 78 78 79 79 79 78 77 75 74 73 72 71 71 71 71 71
57 58 60 61 62 64 65 67 68 69 71 71 72 73 75 76 76 77 78 78 79 79 80 80 80 79 78 76 73 71 69 68 67 66 66 66 66 66
59 61 62 64 65 67 68 70 71 72 74 75 76 76 76 77 78 78 78 79 79 79 79 78 77 75 72 70 68 66 65 63 62 61 61 61 60 61
62 63 65 67 68 70 71 72 74 75 77 77 77 76 76 76 77 77 77 76 75 74 73 71 69 66 64 62 60 58 57 56 55 55 55 55 55 55
65 66 68 69 70 72 73 74 76 78 79 79 78 77 76 76 76 75 74 72 69 67 65 62 60 57 56 54 53 51 50 49 49 48 48 49 49 50
68 69 70 72 73 74 75 76 78 78 79 79 78 77 76 75 75 73 71 68 64 61 59 55 53 51 50 48 47 45 44 43 43 43 43 43 44 44
70 71 73 74 75 76 77 78 78 78 78 78 78 76 75 73 72 69 66 63 59 55 53 50 48 46 45 43 42 41 40 39 39 38 38 38 38 38
72 73 74 75 76 78 79 79 77 76 76 76 75 74 72 70 67 65 60 57 52 48 47 45 43 41 40 39 38 37 35 35 34 34 34 33 33 33
74 74 75 76 77 77 78 77 76 74 74 72 71 69 67 64 61 58 54 51 47 43 42 41 38 37 34 34 34 33 32 31 30 30 30 30 30 30
75 76 76 76 75 75 75 75 74 72 70 68 66 63 60 56 53 50 48 45 42 39 38 36 34 32 30 29 30 30 29 28 27 26 26 27 27 27
76 75 74 74 74 73 73 72 71 69 66 64 61 57 53 49 46 44 42 40 37 35 33 32 30 29 28 27 27 27 26 24 24 23 23 24 24 25
75 74 73 73 72 71 69 68 66 64 62 59 55 50 46 43 40 38 37 35 33 31 30 28 27 26 26 25 24 24 23 23 22 21 21 21 22 23
74 73 72 71 70 68 65 63 61 59 56 53 48 44 41 38 36 35 33 31 29 28 27 26 25 24 23 23 23 22 22 22 21 20 20 20 20 20
73 72 70 69 66 63 61 58 56 54 51 47 43 40 37 35 33 32 30 28 27 26 25 24 23 22 22 21 21 21 21 21 20 19 19 19 18 18
72 70 67 64 61 59 57 54 51 48 45 41 39 36 34 32 30 28 26 25 25 24 24 23 22 21 20 20 20 20 20 20 19 19 18 18 18 17
68 66 63 60 57 55 53 50 46 43 40 38 36 33 31 29 27 25 24 23 23 22 22 21 21 20 19 19 20 20 20 20 19 18 18 18 18 17
64 61 58 55 53 51 47 44 41 39 37 35 33 31 29 27 25 24 23 22 21 21 20 20 20 19 18 18 19 19 19 19 19 18 18 18 17 17
59 56 53 51 49 46 43 40 37 35 33 32 30 28 26 24 23 22 22 21 20 20 20 19 19 18 17 17 17 18 17 17 18 18 18 18 18 17
54 51 49 47 45 43 40 37 34 32 31 29 27 26 24 23 22 21 21 20 19 19 19 19 18 18 17 17 17 17 17 17 18 18 18 18 18 18
49 48 46 44 42 40 37 34 31 30 28 26 25 24 22 21 20 20 20 19 19 19 19 18 18 18 18 17 17 18 18 18 18 18 18 19 19 19
Wind_Direction
299 299 299 298 298 297 297 297 296 295 294 294 292 292 291 290 290 289 288 287 286 285 284 283 282 281 280 279 278 276 275 273 272 270 268 267 265 264
300 300 299 299 298 298 298 297 297 297 296 295 294 293 293 292 291 291 290 288 287 286 285 284 283 283 282 281 280 278 276 274 272 271 269 267 266 264
300 300 300 299 299 298 298 298 298 297 297 296 296 295 294 294 293 292 291 290 289 288 287 286 285 284 284 282 281 279 277 275 273 271 268 267 265 264
300 300 300 300 299 299 298 298 298 298 297 297 296 295 295 294 293 292 291 290 290 289 288 287 286 286 284 283 281 279 276 274 272 270 268 266 264 262
300 300 300 300 299 299 299 298 298 298 298 297 297 296 295 294 293 292 291 291 290 289 288 288 287 286 284 282 280 277 275 273 271 269 267 266 264 262
300 301 300 300 300 300 299 299 298 298 298 298 297 296 295 294 293 293 292 291 291 290 289 289 287 285 283 281 279 277 274 272 270 268 266 264 262 261
301 301 301 301 300 300 300 299 299 299 299 298 298 297 296 295 294 293 293 293 292 291 290 289 287 285 282 280 278 276 273 271 269 267 265 263 261 260
301 301 301 301 301 300 300 300 300 300 299 299 298 297 296 295 295 295 294 293 292 291 289 288 285 284 282 280 277 275 272 270 268 265 263 262 260 258
302 302 302 302 301 301 301 301 301 300 299 299 298 298 297 296 295 295 294 294 293 291 289 287 284 283 281 279 277 274 272 270 267 265 262 260 258 256
303 303 302 302 302 301 301 301 301 300 299 298 298 298 297 297 296 295 294 293 292 290 287 285 283 282 280 277 275 273 272 270 267 264 261 258 256 255
303 303 303 303 303 302 302 302 301 300 299 299 299 298 298 297 296 294 293 292 291 288 286 284 282 281 278 275 273 272 271 269 266 263 259 256 254 253
304 304 304 304 303 303 302 302 302 301 300 299 299 298 297 296 295 294 292 291 290 287 285 283 281 279 275 273 272 270 269 267 264 261 257 254 252 250
304 305 305 304 304 304 303 303 303 302 301 300 300 299 297 295 294 292 291 290 289 287 284 282 279 277 273 270 270 269 267 264 261 259 255 252 250 249
305 305 305 305 305 304 304 304 303 302 302 302 301 300 298 295 293 291 290 288 287 285 283 280 276 273 271 269 267 266 265 262 258 256 253 251 250 248
306 306 306 306 306 305 305 304 303 303 302 302 301 299 297 294 292 290 289 287 285 283 280 277 274 271 269 267 264 262 261 260 257 254 251 250 249 247
306 306 306 306 306 305 305 304 304 303 302 302 300 298 296 293 291 289 287 285 282 280 278 276 273 270 267 265 261 259 258 257 255 251 249 248 246 243
307 307 307 307 306 305 305 305 304 304 302 301 299 297 295 292 291 288 285 281 280 277 275 274 272 268 265 262 257 255 255 254 251 248 245 244 242 239
308 308 308 308 307 306 306 305 304 303 302 300 298 296 293 291 289 286 282 280 278 275 273 272 270 267 263 260 256 254 253 250 247 245 242 240 238 236
308 309 309 308 308 307 306 305 304 302 301 299 297 295 292 289 287 283 280 278 276 274 271 270 268 264 260 257 255 253 251 247 243 241 240 238 236 234
309 309 309 308 308 308 307 305 303 301 300 298 296 294 290 287 284 280 277 275 273 271 269 267 265 262 258 256 254 251 248 244 241 238 236 234 234 233
310 310 309 309 309 308 307 305 303 301 299 297 295 292 289 285 281 277 274 272 270 269 267 265 262 260 256 253 250 248 245 241 238 235 233 231 230 228
310 310 310 309 308 307 306 305 303 301 299 296 293 291 287 282 278 274 271 269 268 266 264 263 260 257 254 250 247 245 243 239 235 233 231 228 225 222
311 310 310 310 308 307 305 304 302 300 298 295 293 290 286 280 276 272 269 267 266 265 262 260 258 256 253 249 246 243 241 237 234 231 229 226 223 221
Height
5677 5672 5667 5662 5657 5651 5646 5641 5637 5634 5631 5625 5618 5612 5606 5601 5596 5591 5587 5583 5578 5574 5570 5566 5563 5560 5557 5555 5553 5551 5550 5549 5548 5547 5548 5548 5549 5550
5665 5659 5654 5648 5643 5637 5631 5626 5620 5616 5613 5609 5601 5594 5588 5582 5577 5571 5566 5562 5557 5552 5548 5544 5540 5537 5534 5531 5528 5526 5525 5523 5522 5522 5522 5522 5524 5525
5652 5646 5640 5634 5628 5622 5616 5610 5604 5598 5594 5592 5583 5576 5569 5563 5556 5550 5544 5539 5535 5529 5524 5519 5515 5512 5508 5505 5502 5500 5498 5496 5496 5495 5495 5496 5498 5500
5638 5632 5626 5619 5613 5607 5600 5594 5587 5581 5575 5572 5566 5557 5550 5542 5535 5529 5522 5516 5511 5505 5499 5494 5490 5486 5482 5479 5476 5473 5472 5470 5470 5470 5471 5472 5473 5474
5624 5618 5611 5604 5598 5590 5583 5576 5569 5562 5555 5550 5545 5537 5529 5521 5513 5507 5500 5493 5487 5480 5475 5469 5464 5459 5456 5452 5450 5448 5447 5446 5446 5447 5447 5448 5450 5452
5609 5603 5596 5588 5581 5573 5566 5558 5550 5543 5535 5528 5522 5516 5507 5498 5490 5483 5477 5470 5463 5456 5449 5443 5438 5434 5431 5428 5426 5425 5424 5424 5424 5425 5425 5427 5429 5431
5594 5587 5579 5571 5563 5555 5547 5539 5530 5522 5514 5506 5500 5493 5485 5476 5468 5460 5453 5447 5440 5432 5426 5420 5415 5412 5408 5406 5404 5403 5403 5404 5404 5405 5406 5407 5410 5412
5578 5570 5562 5554 5545 5536 5528 5519 5510 5500 5492 5483 5477 5470 5463 5453 5445 5437 5430 5424 5420 5413 5405 5401 5395 5392 5389 5387 5386 5385 5385 5386 5387 5388 5389 5390 5392 5395
5560 5552 5544 5535 5525 5516 5508 5499 5490 5479 5469 5460 5453 5446 5438 5431 5422 5416 5408 5403 5398 5392 5386 5384 5379 5376 5373 5372 5370 5370 5370 5370 5372 5373 5374 5376 5377 5380
5542 5533 5524 5515 5504 5495 5486 5478 5469 5460 5449 5439 5431 5424 5415 5407 5399 5393 5388 5383 5380 5374 5369 5367 5364 5361 5359 5358 5357 5356 5356 5357 5358 5359 5361 5363 5365 5367
5523 5514 5504 5494 5485 5473 5464 5456 5448 5438 5428 5419 5410 5401 5394 5386 5379 5373 5369 5364 5362 5359 5354 5351 5350 5348 5347 5346 5345 5344 5345 5346 5347 5348 5349 5351 5353 5356
5505 5495 5485 5474 5463 5451 5441 5432 5424 5416 5407 5399 5390 5382 5374 5368 5361 5355 5351 5348 5346 5345 5342 5338 5337 5335 5336 5335 5334 5334 5334 5335 5337 5338 5340 5341 5344 5346
5485 5476 5465 5453 5442 5431 5420 5411 5402 5393 5386 5378 5370 5363 5356 5350 5345 5341 5337 5334 5332 5331 5329 5327 5326 5324 5324 5325 5324 5324 5325 5326 5328 5329 5331 5333 5335 5337
5464 5455 5444 5434 5423 5412 5402 5392 5382 5373 5366 5359 5352 5346 5340 5335 5331 5328 5325 5322 5320 5319 5317 5316 5316 5315 5315 5316 5316 5316 5316 5318 5320 5322 5323 5325 5327 5329
5443 5434 5424 5414 5403 5394 5384 5373 5364 5356 5348 5342 5336 5331 5326 5322 5318 5316 5313 5311 5310 5309 5307 5307 5307 5307 5307 5308 5308 5309 5309 5311 5312 5315 5317 5318 5320 5322
5423 5414 5405 5395 5385 5375 5366 5357 5348 5340 5333 5327 5322 5317 5313 5310 5307 5305 5303 5301 5301 5300 5299 5298 5299 5299 5299 5300 5301 5302 5303 5304 5306 5308 5310 5312 5314 5316
5404 5395 5386 5377 5368 5358 5350 5341 5333 5326 5319 5314 5309 5306 5302 5300 5297 5295 5293 5292 5292 5292 5291 5291 5291 5292 5292 5293 5294 5295 5296 5298 5300 5302 5304 5306 5308 5310
5384 5376 5367 5358 5349 5341 5334 5326 5319 5312 5307 5302 5298 5295 5292 5290 5288 5286 5285 5284 5284 5284 5284 5284 5284 5285 5286 5287 5288 5289 5290 5292 5294 5296 5298 5301 5303 5306
5366 5357 5349 5341 5333 5326 5318 5312 5306 5300 5295 5291 5288 5285 5283 5281 5279 5278 5277 5277 5277 5277 5277 5277 5278 5278 5280 5281 5282 5283 5285 5286 5289 5291 5293 5296 5298 5300
5350 5341 5333 5326 5318 5312 5305 5299 5294 5289 5285 5281 5278 5276 5274 5272 5271 5271 5270 5270 5270 5270 5271 5271 5271 5272 5274 5275 5276 5277 5278 5281 5283 5286 5288 5291 5293 5295
5335 5326 5319 5312 5305 5299 5293 5288 5283 5279 5275 5272 5269 5267 5266 5265 5264 5263 5263 5263 5264 5264 5264 5265 5266 5267 5268 5269 5270 5271 5273 5275 5278 5280 5283 5286 5288 5291
5320 5313 5306 5299 5293 5288 5282 5277 5273 5270 5266 5264 5261 5260 5258 5257 5257 5256 5257 5257 5257 5258 5258 5259 5260 5261 5262 5264 5265 5267 5268 5271 5273 5275 5278 5281 5284 5287
5307 5300 5294 5288 5282 5277 5272 5268 5264 5261 5258 5256 5254 5252 5251 5250 5250 5250 5250 5250 5251 5251 5252 5253 5254 5255 5257 5258 5260 5262 5263 5266 5268 5271 5274 5277 5280 5283